Location: Songkhla
(7.2000°N, 100.6000°E)
Time: 20:39:13
(UTC+07:00)

Cosmos 1666 Rocket - Pass Details

Date: 16 April 2026
Orbit: 598 x 624 km, 82.5° (Epoch: 20 May)

Event Time Altitude Azimuth Distance (km) Brightness Sun altitude
Rises 18:45:09 0° 190° (S) 2,839 7.0 -5.5°
Reaches altitude 10° 18:47:22 10° 194° (SSW) 1,934 6.1 -6.0°
Maximum altitude 18:51:35 61° 274° (W) 679 4.2 -7.1°
Drops below altitude 10° 18:55:47 10° 355° (N) 1,928 6.3 -8.1°
Sets 18:58:01 0° 358° (N) 2,829 7.1 -8.6°
